www.pogodaiklimat.ru
ПОГОДА в Баня-Лука аэропорту

Архив погоды в Баня-Лука аэропорту (Босния и Герцеговина)

Время
(UTC), дата
13 15.07
14 15.07
15 15.07
16 15.07
17 15.07
18 15.07
19 15.07
20 15.07
21 15.07
22 15.07
23 15.07
00 16.07
01 16.07
02 16.07
03 16.07
04 16.07
05 16.07
06 16.07
07 16.07
08 16.07
09 16.07
10 16.07
11 16.07
12 16.07
13 16.07
14 16.07
15 16.07
16 16.07
17 16.07
18 16.07
19 16.07
20 16.07
21 16.07
22 16.07
23 16.07
00 17.07
01 17.07
02 17.07
03 17.07
04 17.07
05 17.07
06 17.07
07 17.07
08 17.07
09 17.07
10 17.07
11 17.07
12 17.07
13 17.07
14 17.07
15 17.07
16 17.07
17 17.07
18 17.07
19 17.07
20 17.07
21 17.07
22 17.07
23 17.07
00 18.07
01 18.07
02 18.07
03 18.07
04 18.07
05 18.07
06 18.07
07 18.07
08 18.07
09 18.07
10 18.07
11 18.07
12 18.07
13 18.07
14 18.07
15 18.07
16 18.07
17 18.07
18 18.07
19 18.07
20 18.07
21 18.07
22 18.07
23 18.07
00 19.07
01 19.07
02 19.07
03 19.07
04 19.07
05 19.07
06 19.07
07 19.07
08 19.07
09 19.07
10 19.07
11 19.07
12 19.07
13 19.07
14 19.07
15 19.07
16 19.07
17 19.07
18 19.07
19 19.07
20 19.07
21 19.07
22 19.07
23 19.07
00 20.07
01 20.07
02 20.07
03 20.07
04 20.07
05 20.07
06 20.07
07 20.07
08 20.07
09 20.07
10 20.07
11 20.07
12 20.07
13 20.07
14 20.07
15 20.07
16 20.07
17 20.07
18 20.07
19 20.07
20 20.07
21 20.07
22 20.07
23 20.07
00 21.07
01 21.07
02 21.07
03 21.07
04 21.07
05 21.07
06 21.07
07 21.07
08 21.07
09 21.07
10 21.07
11 21.07
12 21.07
13 21.07
14 21.07
15 21.07
16 21.07
17 21.07
18 21.07
19 21.07
20 21.07
21 21.07
22 21.07
23 21.07
00 22.07
01 22.07
02 22.07
03 22.07
04 22.07
05 22.07
06 22.07
07 22.07
08 22.07
09 22.07
10 22.07
11 22.07
12 22.07
13 22.07
Ветер
(напр.,м/с)
Видим. Явления Облачность Т
(С)
Тd
(С)
f
(%)
Тe
(С)
Тes
(С)
Комфортность P
(гПа)
Po
(гПа)
Тmin
(С)
Tmax
(С)
R
(мм)
R24
(мм)
S
(см)
З 2 10 км нет нижн обл +33.0 +17.0 38 +36 +36 очень душно 1013.0 999.4
нст 2 10 км нет нижн обл +33.0 +19.0 44 +38 +38 очень душно 1012.0 998.4
СЗ 3 10 км нет нижн обл +33.0 +20.0 46 +39 +39 очень душно 1012.0 998.4
З 2 10 км нет нижн обл +33.0 +21.0 49 +40 +40 очень душно 1012.0 998.4
З 2 10 км нет нижн обл +32.0 +21.0 52 +39 +39 очень душно 1011.0 997.4
З 2 10 км нет нижн обл +31.0 +23.0 62 +41 +41 очень душно 1012.0 998.4
З 2 10 км нет нижн обл +26.0 +23.0 84 +35 +35 очень душно 1012.0 998.1
С 2 10 км нет нижн обл +25.0 +23.0 89 +33 +33 очень душно 1012.0 998.1
нст 1 10 км нет нижн обл +24.0 +23.0 94 +32 +32 очень душно 1012.0 998.0
нст 1 10 км нет нижн обл +23.0 +22.0 94 +31 +31 очень душно 1012.0 998.0
штиль 0 10 км нет нижн обл +23.0 +22.0 94 +31 +31 очень душно 1012.0 998.0
нст 1 10 км нет нижн обл +22.0 +22.0 100 +29 +29 очень душно 1011.0 996.9
ЮВ 2 10 км нет нижн обл +23.0 +22.0 94 +31 +31 очень душно 1011.0 997.0
нст 1 10 км нет нижн обл +22.0 +21.0 94 +28 +28 душно 1010.0 995.9
З 2 10 км нет нижн обл +21.0 +21.0 100 +27 +27 душно 1011.0 996.9
штиль 0 10 км нет нижн обл +21.0 +21.0 100 +26 +26 душно 1011.0 996.9
штиль 0 10 км нет нижн обл +23.0 +22.0 94 +31 +31 очень душно 1012.0 998.0
штиль 0 10 км нет нижн обл +25.0 +21.0 78 +31 +31 очень душно 1012.0 998.1
нст 1 10 км нет нижн обл +28.0 +22.0 70 +36 +36 очень душно 1012.0 998.2
нст 2 10 км нет нижн обл +30.0 +20.0 55 +36 +36 очень душно 1012.0 998.3
СЗ 2 10 км нет нижн обл +31.0 +19.0 49 +36 +36 очень душно 1012.0 998.3
нст 2 10 км нет нижн обл +32.0 +19.0 46 +37 +37 очень душно 1012.0 998.4
нст 2 10 км нет нижн обл +33.0 +19.0 44 +38 +38 очень душно 1011.0 997.4
нст 2 10 км нет нижн обл +34.0 +18.0 39 +38 +38 очень душно 1011.0 997.5
З 3 10 км нет нижн обл +34.0 +21.0 47 +41 +41 очень душно 1011.0 997.5
СЗ 3 10 км нет нижн обл +34.0 +19.0 41 +39 +39 очень душно 1011.0 997.5
СЗ 4 10 км нет нижн обл +34.0 +20.0 44 +40 +40 очень душно 1011.0 997.5
СЗ 3 10 км нет нижн обл +34.0 +20.0 44 +40 +40 очень душно 1011.0 997.5
З 3 10 км нет нижн обл +33.0 +21.0 49 +40 +40 очень душно 1011.0 997.4
З 2 10 км нет нижн обл +30.0 +23.0 66 +40 +40 очень душно 1011.0 997.3
З 2 10 км нет нижн обл +27.0 +22.0 74 +35 +35 очень душно 1012.0 998.2
ЮВ 2 10 км нет нижн обл +26.0 +22.0 79 +34 +34 очень душно 1012.0 998.1
ЮВ 2 10 км нет нижн обл +25.0 +21.0 78 +31 +31 очень душно 1012.0 998.1
ЮВ 3 10 км нет нижн обл +24.0 +21.0 83 +30 +30 очень душно 1012.0 998.0
СВ 3 10 км нет нижн обл +23.0 +21.0 89 +31 +31 очень душно 1012.0 998.0
нст 2 10 км нет нижн обл +23.0 +21.0 89 +31 +31 очень душно 1013.0 999.0
штиль 0 10 км нет нижн обл +22.0 +21.0 94 +28 +28 душно 1013.0 998.9
нст 2 10 км нет нижн обл +22.0 +21.0 94 +28 +28 душно 1013.0 998.9
СЗ 1 10 км нет нижн обл +21.0 +20.0 94 +27 +27 душно 1013.0 998.9
нст 1 10 км нет нижн обл +22.0 +21.0 94 +28 +28 душно 1014.0 999.9
нст 1 10 км нет нижн обл +24.0 +21.0 83 +30 +30 очень душно 1014.0 1000.0
нст 2 10 км нет нижн обл +25.0 +21.0 78 +31 +31 очень душно 1015.0 1001.0
нст 1 10 км нет нижн обл +27.0 +21.0 70 +34 +34 очень душно 1015.0 1001.1
нст 1 10 км нет нижн обл +29.0 +22.0 66 +37 +37 очень душно 1015.0 1001.2
нст 1 10 км нет нижн обл +30.0 +22.0 62 +39 +39 очень душно 1015.0 1001.3
нст 2 10 км 2/2 1290 м +32.0 +22.0 56 +41 +41 очень душно 1015.0 1001.3
СЗ 3 10 км 2/2 1350 м +32.0 +21.0 52 +39 +39 очень душно 1015.0 1001.3
СЗ 3 10 км 2/2 1350 м +32.0 +21.0 52 +39 +39 очень душно 1015.0 1001.3
СЗ 4 10 км 2/2 1410 м +33.0 +22.0 52 +41 +41 очень душно 1014.0 1000.4
СЗ 4 10 км нет нижн обл +33.0 +21.0 49 +40 +40 очень душно 1015.0 1001.4
СЗ 4 10 км нет нижн обл +32.0 +21.0 52 +39 +39 очень душно 1014.0 1000.4
Ю 7 10 км 5/5 1410 м +30.0 +18.0 49 +35 +35 очень душно 1015.0 1001.2
Ю 5 10 км 2/2 1410 м +28.0 +17.0 51 +32 +32 душно 1015.0 1001.1
В 2 10 км нет нижн обл +28.0 +17.0 51 +32 +32 душно 1015.0 1001.1
ЮВ 5 10 км нет нижн обл +26.0 +17.0 58 +30 +30 душно 1015.0 1001.0
нст 1-7 10 км нет нижн обл +26.0 +17.0 58 +30 +30 душно 1016.0 1002.0
В 2 10 км нет нижн обл +25.0 +17.0 61 +29 +29 душно 1016.0 1002.0
ЮВ 3 10 км нет нижн обл +24.0 +17.0 65 +28 +28 душно 1017.0 1002.9
нст 1 10 км нет нижн обл +23.0 +18.0 73 +28 +28 душно 1017.0 1002.9
ЮВ 2 10 км нет нижн обл +22.0 +19.0 83 +27 +27 душно 1017.0 1002.8
Ю 1 10 км нет нижн обл +21.0 +19.0 88 +27 +27 душно 1018.0 1003.8
ЮВ 2 10 км нет нижн обл +21.0 +19.0 88 +26 +26 душно 1018.0 1003.8
нст 1 10 км нет нижн обл +20.0 +18.0 88 +24 +24 комфорт 1018.0 1003.7
штиль 0 10 км нет нижн обл +21.0 +19.0 88 +25 +25 комфорт 1019.0 1004.8
нст 2 10 км нет нижн обл +22.0 +18.0 78 +27 +27 душно 1019.0 1004.8
З 2 10 км нет нижн обл +23.0 +16.0 65 +27 +27 душно 1020.0 1005.8
нст 1 10 км нет нижн обл +25.0 +17.0 61 +29 +29 душно 1020.0 1005.9
З 2 10 км нет нижн обл +26.0 +18.0 61 +30 +30 душно 1020.0 1006.0
нст 1 10 км нет нижн обл +28.0 +19.0 58 +33 +33 очень душно 1019.0 1005.1
СЗ 2 10 км нет нижн обл +28.0 +18.0 55 +33 +33 очень душно 1019.0 1005.1
нст 3 10 км нет нижн обл +28.0 +18.0 55 +33 +33 очень душно 1019.0 1005.1
З 3 10 км нет нижн обл +29.0 +19.0 55 +34 +34 очень душно 1018.0 1004.1
З 3 10 км нет нижн обл +30.0 +19.0 52 +35 +35 очень душно 1018.0 1004.2
СЗ 4 10 км нет нижн обл +31.0 +20.0 52 +37 +37 очень душно 1017.0 1003.3
З 4 10 км нет нижн обл +30.0 +19.0 52 +35 +35 очень душно 1017.0 1003.2
З 4 10 км нет нижн обл +30.0 +20.0 55 +36 +36 очень душно 1017.0 1003.2
З 3 10 км нет нижн обл +30.0 +21.0 59 +38 +38 очень душно 1017.0 1003.2
З 2 10 км нет нижн обл +29.0 +21.0 62 +36 +36 очень душно 1017.0 1003.2
З 2 10 км нет нижн обл +27.0 +22.0 74 +35 +35 очень душно 1017.0 1003.1
З 3 10 км нет нижн обл +27.0 +21.0 70 +34 +34 очень душно 1017.0 1003.1
ЮВ 2 10 км нет нижн обл +25.0 +21.0 78 +31 +31 очень душно 1017.0 1003.0
ЮВ 2 10 км нет нижн обл +24.0 +21.0 83 +30 +30 очень душно 1017.0 1002.9
ЮВ 3 10 км 2/2 990 м +25.0 +21.0 78 +31 +31 очень душно 1017.0 1003.0
В 2 10 км нет нижн обл +25.0 +22.0 83 +32 +32 очень душно 1017.0 1003.0
нст 1 10 км нет нижн обл +23.0 +21.0 89 +31 +31 очень душно 1017.0 1002.9
нст 1 10 км нет нижн обл +22.0 +22.0 100 +29 +29 очень душно 1017.0 1002.9
СЗ 1 10 км нет нижн обл +21.0 +21.0 100 +28 +28 очень душно 1017.0 1002.8
Ю 1 10 км нет нижн обл +22.0 +21.0 94 +28 +28 душно 1017.0 1002.9
нст 1 10 км нет нижн обл +23.0 +22.0 94 +31 +31 очень душно 1017.0 1002.9
нст 1 10 км нет нижн обл +25.0 +22.0 83 +32 +32 очень душно 1017.0 1003.0
нст 2 10 км нет нижн обл +27.0 +22.0 74 +35 +35 очень душно 1018.0 1004.1
СВ 2 10 км нет нижн обл +28.0 +21.0 66 +35 +35 очень душно 1017.0 1003.1
СВ 3 10 км нет нижн обл +30.0 +21.0 59 +38 +38 очень душно 1017.0 1003.2
СВ 3 10 км нет нижн обл +31.0 +21.0 55 +38 +38 очень душно 1016.0 1002.3
СВ 4-10 10 км нет нижн обл +33.0 +20.0 46 +39 +39 очень душно 1016.0 1002.4
СВ 5 10 км нет нижн обл +33.0 +18.0 41 +37 +37 очень душно 1015.0 1001.4
СВ 5 10 км нет нижн обл +33.0 +17.0 38 +36 +36 очень душно 1015.0 1001.4
СВ 5 10 км нет нижн обл +34.0 +17.0 36 +37 +37 очень душно 1014.0 1000.4
СВ 5 10 км нет нижн обл +33.0 +16.0 36 +36 +36 очень душно 1013.0 999.4
СВ 4 10 км нет нижн обл +33.0 +17.0 38 +36 +36 очень душно 1013.0 999.4
СВ 3 10 км нет нижн обл +32.0 +17.0 41 +36 +36 очень душно 1012.0 998.4
нст 1 10 км нет нижн обл +31.0 +18.0 46 +35 +35 очень душно 1013.0 999.3
нст 1 10 км нет нижн обл +27.0 +20.0 66 +33 +33 очень душно 1013.0 999.1
штиль 0 10 км нет нижн обл +26.0 +21.0 74 +33 +33 очень душно 1013.0 999.1
нст 1 10 км нет нижн обл +25.0 +21.0 78 +31 +31 очень душно 1013.0 999.0
ЮВ 3 10 км нет нижн обл +26.0 +19.0 65 +31 +31 очень душно 1013.0 999.1
В 4 10 км гроза, ливневой дождь 5/5 1200 м
[Cb]
+23.0 +19.0 78 +29 +29 очень душно 1013.0 998.9
Ю 3 10 км 5/5 1410 м +22.0 +20.0 88 +28 +28 душно 1012.0 997.9
З 1 10 км нет нижн обл +21.0 +21.0 100 +28 +28 очень душно 1011.0 996.9
СЗ 2 10 км нет нижн обл +20.0 +20.0 100 +24 +24 комфорт 1011.0 996.8
СЗ 4 10 км нет нижн обл +21.0 +20.0 94 +26 +26 душно 1011.0 996.9
СЗ 3 10 км нет нижн обл +22.0 +20.0 88 +28 +28 душно 1011.0 996.9
нст 2 10 км нет нижн обл +23.0 +20.0 83 +30 +30 очень душно 1011.0 997.0
СЗ 3 10 км нет нижн обл +23.0 +21.0 89 +31 +31 очень душно 1011.0 997.0
СЗ 4 10 км 5/5 1410 м +23.0 +20.0 83 +30 +30 очень душно 1011.0 997.0
СВ 4 10 км 5/5 1110 м +23.0 +19.0 78 +29 +29 очень душно 1011.0 997.0
нст 1 10 км 5/5 780 м +25.0 +19.0 69 +30 +30 душно 1011.0 997.1
нст 2 10 км 5/5 900 м +26.0 +17.0 58 +30 +30 душно 1011.0 997.1
СЗ 10-15 10 км гроза без осадков 8/8 990 м
[Cb]
+26.0 +17.0 58 +30 +30 душно 1011.0 997.1
нст 1 10 км гроза, ливневой дождь 5/5 1050 м
[Cb]
+22.0 +21.0 94 +28 +28 душно 1012.0 997.9
нст 2 н/о гроза, ливневой дождь 5/5 1110 м
[Cb]
+21.0 +21.0 100 +27 +27 душно 1011.0 996.9
Ю 2 10 км нет нижн обл +22.0 +20.0 88 +28 +28 душно 1010.0 995.9
нст 2 10 км 2/2 1050 м +24.0 +19.0 74 +29 +29 душно 1010.0 996.0
С 2 10 км 2/2 1200 м +25.0 +19.0 69 +30 +30 душно 1010.0 996.1
СВ 3 10 км 5/5 570 м +23.0 +20.0 83 +30 +30 очень душно 1010.0 996.0
В 2 10 км слаб. дождь 5/5 1290 м
[Ns]
+22.0 +21.0 94 +28 +28 душно 1010.0 995.9
нст 2 10 км 2/2 1410 м +22.0 +21.0 94 +28 +28 душно 1010.0 995.9
нст 1 10 км слаб. дождь 5/5 1290 м
[Ns]
+21.0 +21.0 100 +28 +28 очень душно 1010.0 995.9
З 2 10 км 8/8 1050 м
[Ns]
+21.0 +21.0 100 +27 +27 душно 1010.0 995.9
З 1 н/о 8/8 1050 м +21.0 +21.0 100 +28 +28 очень душно 1010.0 995.9
нст 1 н/о 8/8 510 м +21.0 +21.0 100 +28 +28 очень душно 1010.0 995.9
нст 1 10 км 8/8 210 м +21.0 +21.0 100 +28 +28 очень душно 1010.0 995.9
нст 1 10 км 8/8 510 м +21.0 +20.0 94 +27 +27 душно 1010.0 995.9
нст 1 10 км 8/8 270 м +20.0 +20.0 100 +25 +25 комфорт 1009.0 994.9
ЮЗ 1 10 км 8/8 450 м +20.0 +20.0 100 +25 +25 комфорт 1010.0 995.8
нст 1 10 км 8/8 300 м +20.0 +20.0 100 +25 +25 комфорт 1010.0 995.8
С 1 10 км 8/8 390 м +21.0 +20.0 94 +27 +27 душно 1010.0 995.9
З 2 10 км 8/8 210 м +21.0 +20.0 94 +27 +27 душно 1010.0 995.9
СЗ 4 10 км 8/8 330 м +22.0 +20.0 88 +28 +28 душно 1011.0 996.9
З 4 10 км 5/5 480 м +23.0 +19.0 78 +29 +29 очень душно 1011.0 997.0
СЗ 4 10 км 5/5 480 м +23.0 +18.0 73 +28 +28 душно 1011.0 997.0
Ю 2 10 км 8/8 660 м +24.0 +19.0 74 +29 +29 душно 1011.0 997.0
нст 1 10 км 2/2 1410 м +25.0 +19.0 69 +30 +30 душно 1011.0 997.1
нст 2 10 км 5/5 1410 м +27.0 +18.0 58 +32 +32 очень душно 1010.0 996.2
нст 2 10 км 5/5 1140 м +28.0 +18.0 55 +33 +33 очень душно 1010.0 996.2
нст 2 10 км 2/2 1410 м +29.0 +18.0 51 +33 +33 очень душно 1010.0 996.3
З 3 10 км 2/2 1410 м +28.0 +18.0 55 +33 +33 очень душно 1009.0 995.2
З 3 10 км нет нижн обл +29.0 +17.0 48 +33 +33 очень душно 1009.0 995.3
СЗ 3 10 км нет нижн обл +28.0 +17.0 51 +32 +32 душно 1009.0 995.2
З 1 10 км нет нижн обл +26.0 +19.0 65 +31 +31 очень душно 1009.0 995.1
нст 1 10 км нет нижн обл +22.0 +20.0 88 +28 +28 душно 1009.0 995.0
нст 1 10 км нет нижн обл +21.0 +20.0 94 +27 +27 душно 1010.0 995.9
штиль 0 10 км нет нижн обл +20.0 +19.0 94 +23 +23 комфорт 1010.0 995.8
нст 1 10 км нет нижн обл +19.0 +19.0 100 +22 +22 комфорт 1011.0 996.8
нст 1 10 км нет нижн обл +19.0 +19.0 100 +22 +22 комфорт 1011.0 996.8
Ю 1 10 км нет нижн обл +19.0 +19.0 100 +22 +22 комфорт 1011.0 996.8
нст 1 10 км нет нижн обл +18.0 +18.0 100 +19 +19 1011.0 996.7
нст 1 10 км нет нижн обл +18.0 +18.0 100 +19 +19 1010.0 995.7
нст 1 10 км нет нижн обл +17.0 +17.0 100 +18 +18 1010.0 995.7
ЮВ 3 10 км нет нижн обл +18.0 +18.0 100 +18 +18 1011.0 996.7
нст 1 10 км нет нижн обл +19.0 +18.0 94 +22 +22 комфорт 1011.0 996.8
СЗ 1 10 км нет нижн обл +21.0 +19.0 88 +27 +27 душно 1012.0 997.9
нст 1 10 км нет нижн обл +23.0 +19.0 78 +29 +29 очень душно 1012.0 998.0
нст 2 10 км нет нижн обл +25.0 +19.0 69 +30 +30 душно 1012.0 998.0
нст 1 10 км нет нижн обл +26.0 +19.0 65 +31 +31 очень душно 1013.0 999.1
нст 1 10 км нет нижн обл +28.0 +19.0 58 +33 +33 очень душно 1013.0 999.2
нст 2 10 км 2/2 1200 м +29.0 +18.0 51 +33 +33 очень душно 1012.0 998.2
нст 2 10 км 2/2 1200 м +30.0 +17.0 46 +34 +34 очень душно 1012.0 998.3
СВ 2 10 км 2/2 1290 м +31.0 +16.0 40 +34 +34 душно 1012.0 998.3
Местоположение метеостанции Баня-Лука аэропорт (Босния и Герцеговина): широта 44.94 долгота 17.30 высота над уровнем моря 122 м.
В архиве по умолчанию представлена погода в Баня-Лука аэропорту за последнюю неделю. Архивные данные за месяц целиком и за предыдущие месяцы, начиная с января 2011 года, Вы можете получить, выбрав интересующий диапазон дат из раскрывающегося списка и нажав кнопку "Найти!".
*Определитесь, кто Вы:
Внимание! Время в таблицах - всемирное. Для получения местного времени необходимо прибавить поправку, которая равна 1 ч.
Некоторые строки с данными для отдельных станций могут быть выделены курсивом. Это означает, что фактические данные отсутствуют по различным причинам, а приведенные значения являются расчетными модельными данными для данного пункта наблюдений.
Смотрите также архив погоды в соседних городах и на ближайших метеорологических станциях:
Партнеры нашего сайта:      
Пояснения к столбцам:
  • Ветер - указаны скорость ветра в м/с - средняя за 10 мин, порывы в срок и между сроками (в фигурных скобках) и направление, откуда дует ветер: С - северный,
  • СВ - северо-восточный, В - восточный, ЮВ - юго-восточный, Ю - южный, ЮЗ - юго-западный, З - западный, СЗ - северо-западный.
  • Видимость - горизонтальная дальность видимости в метрах или километрах. При видимости от 1 до 10 км при отсутствии осадков обычно наблюдается дымка, при ухудшении видимости до 1 км и менее - туман. В сухую погоду видимость может ухудшаться дымом, пылью или мглою.
  • Явления - указаны атмосферные явления, наблюдавшиеся в срок или в последний час перед сроком; фигурными скобками обозначены явления, наблюдавшиеся между сроками (за 1-3 часа до срока); квадратными скобками обозначены град или гололедные отложения с указанием их диаметра в мм.
  • Облачность - указаны через наклонную черту общая и нижняя облачность в баллах и высота нижней границы облаков в метрах; квадратными скобками обозначены формы облаков: Ci - перистые, Cs - перисто-слоистые, Cc - перисто-кучевые, Ac - высококучевые, As - высокослоистые, Sc - слоисто-кучевые, Ns - слоисто-дождевые, Cu - кучевые, Cb - кучево-дождевые. Подробнее классификацию облаков см. в Атласе облаков (PDF).
  • T - Температура воздуха - температура, измеренная на высоте 2 м над землей.
  • Td - Температура точки росы - температура, при понижении до которой содержащийся в воздухе водяной пар достигнет насыщения.
  • f - Относительная влажность воздуха - влажноcть воздуха, измеренная на высоте 2 м над землей.
  • Te - Эффективная температура - температура, которую ощущает одетый по сезону человек в тени. Характеристика душности погоды. При расчете учитывается влияние влажности воздуха и скорости ветра на теплоощущения человека.
  • Tes - Эффективная температура на солнце - температура, которую ощущает человек, с поправкой на солнечный нагрев. Характеристика знойности погоды. Зависит от высоты солнца над горизонтом, облачности и скорости ветра. Ночью, в пасмурную погоду, а также при ветре 12 м/с и более поправка равна нулю.
  • P - Атмосферное давление - приведенное к уровню моря атмосферное давление.
  • Po - Атмосферное давление - измеренное на уровне метеостанции атмосферное давление.
  • Tmin - Минимальная температура - минимум температуры воздуха на высоте 2 м над землей.
  • Tmax - Максимальная температура - максимум температуры воздуха на высоте 2 м над землей.
  • R - Количество осадков - Количество выпавших осадков за период времени, мм. При наведении курсора мыши на число - период времени, за который выпало указанное количество осадков.
  • R24 - Количество осадков - Количество выпавших осадков за 24 часа, мм.
  • S - Снежный покров - Высота снежного покрова, см. При наведении курсора мыши на число - состояние снежного покрова и степень покрытия местности в баллах.